Powrót do katalogu

OBJECT C

AktywnySSO
NORAD 100145·UNKNOWN·🇨🇳 China

Wystrzelony Jul 23, 2026 z Jiuquan Satellite Launch Center

Loading…

Następne Przeloty (najbliższe 24 godziny)

TLE

ŚwieżeSource: Space-Track

Epoka: Sep 14, 2026, 11:01 UTC

1 A0145U 26170C   26257.45964399  .00000975  00000-0  67893-4 0  9995
2 A0145  97.5573 263.3981 0017119  98.7662 261.5505 15.07661851  7918

Śledź OBJECT C w czasie rzeczywistym z AllMySat

Download on the App Store